Buoy 13569

sailwx.info

Track history (hours):
 
Tides and Currents Weather Stations Pressure Air Temp Water Temp Dewpoint Dewpoint Depression Visibility Wind Speed Wind Dir Waves Ship Positions

Drifting buoy 13569

Last reported at 2014-Nov-26 07:00 UTC. Time now 2014-Nov-26 08:53 UTC.
Position N 32°14' W 029°35'.

Barometer 1029.0 mb
Water temperature 21.3 ° C

Date/timePositionNaut miles runAvg speedWind from/ knotsBaromVisibWave heightAir tempDewpointWater temp
2014-Nov-26 07:00N 32°14' W 029°35'1 0.6 1029.0 21.3
2014-Nov-26 05:00N 32°15' W 029°36'1 0.7 1029.0 21.3
2014-Nov-26 03:00N 32°17' W 029°37'0 0.0 1029.0 21.3
2014-Nov-25 22:00N 32°17' W 029°37'1 0.4 1028.8 21.3
2014-Nov-25 19:00N 32°18' W 029°37'0 0.0 1027.5 21.4
2014-Nov-25 18:00N 32°18' W 029°37'0 0.3 1027.3 21.4
2014-Nov-25 17:00N 32°18' W 029°38'2 1.0 1027.0 21.5
2014-Nov-25 15:00N 32°20' W 029°37'0 0.1 1026.8 21.5
2014-Nov-25 12:00N 32°20' W 029°37'2 1.9 1028.4 21.4
2014-Nov-25 11:00N 32°22' W 029°37'0 0.4 1028.3 21.4
2014-Nov-25 10:00N 32°21' W 029°37'0 0.2 1027.8 21.4
2014-Nov-25 08:00N 32°22' W 029°37'1 0.6 1026.5 21.3
2014-Nov-25 07:00N 32°22' W 029°37'3 1.0 1025.9 21.4
2014-Nov-25 04:00N 32°25' W 029°40'2 1.6 1025.9 21.4
2014-Nov-25 03:00N 32°23' W 029°38'2 0.5 1025.8 21.4
2014-Nov-25 00:00N 32°25' W 029°40'1 0.5 1026.6 21.4
2014-Nov-24 23:00N 32°25' W 029°40'0 0.0 1026.9 21.4
2014-Nov-24 22:00N 32°25' W 029°40'1 0.4 1027.0 21.5
2014-Nov-24 20:00N 32°25' W 029°41'0 0.0 1026.5 21.5
2014-Nov-24 19:00N 32°25' W 029°41'0 0.0 1026.0 21.5
2014-Nov-24 18:00N 32°25' W 029°41'2 0.6 1026.0 21.5
2014-Nov-24 15:00N 32°27' W 029°41'0 0.0 1025.9 21.5
2014-Nov-24 12:00N 32°27' W 029°41'0 0.0 1027.1 21.5
2014-Nov-24 11:00N 32°27' W 029°41'2 1.9 1027.5 21.5
2014-Nov-24 10:00N 32°29' W 029°41'0 0.0 1027.0 21.5
2014-Nov-24 08:00N 32°29' W 029°41'0 0.0 1025.8 21.4
2014-Nov-24 07:00N 32°29' W 029°41'2 1.6 1025.5 21.4
2014-Nov-24 06:00N 32°30' W 029°43'0 0.0 1025.1 21.4
2014-Nov-24 04:00N 32°30' W 029°43'0 0.0 1025.0 21.4
2014-Nov-24 03:00N 32°30' W 029°43'2 0.4 1025.1 21.4
2014-Nov-23 23:00N 32°31' W 029°44'1 0.6 1025.0 21.4
2014-Nov-23 22:00N 32°31' W 029°44'1 1.0 1025.1 21.5
2014-Nov-23 21:00N 32°31' W 029°43'1 0.3 1025.1 21.4
2014-Nov-23 19:00N 32°31' W 029°44'0 0.0 1024.8 21.5
2014-Nov-23 18:00N 32°31' W 029°44'0 0.0 1024.6 21.5
2014-Nov-23 17:00N 32°31' W 029°44'1 0.4 1024.5 21.5
2014-Nov-23 15:00N 32°32' W 029°43'2 0.8 1024.5 21.5
2014-Nov-23 12:00N 32°34' W 029°44'1 1.2 1025.9 21.4
2014-Nov-23 11:00N 32°35' W 029°45'1 0.6 1025.3 21.4
2014-Nov-23 10:00N 32°34' W 029°45'1 0.7 1025.3 21.4
2014-Nov-23 08:00N 32°35' W 029°46'1 0.5 1024.6 21.4
2014-Nov-23 07:00N 32°35' W 029°45'1 0.5 1024.4 21.4
2014-Nov-23 06:00N 32°35' W 029°46'1 0.8 1024.1 21.4
2014-Nov-23 05:00N 32°36' W 029°46'0 0.0 1024.0 21.4
2014-Nov-23 04:00N 32°36' W 029°46'2 0.3 1024.0 21.4
2014-Nov-22 23:00N 32°37' W 029°47'1 1.0 1024.4 21.4
2014-Nov-22 22:00N 32°37' W 029°46'0 0.0 1024.3 21.4
2014-Nov-22 21:00N 32°37' W 029°46'0 0.0 1024.3 21.4
2014-Nov-22 17:00N 32°37' W 029°46'2 1.6 1023.0 21.4
2014-Nov-22 16:00N 32°38' W 029°44'0 0.0 1022.9 21.4
2014-Nov-22 15:00N 32°38' W 029°44'4 0.8 1023.0 21.4
2014-Nov-22 10:00N 32°41' W 029°47'0 0.2 1023.2 21.4
2014-Nov-22 09:00N 32°42' W 029°47'0 0.2 1022.7 21.3
2014-Nov-22 08:00N 32°41' W 029°47'0 0.0 1022.0 21.4
2014-Nov-22 06:00N 32°41' W 029°47'1 0.7 1021.2 21.4
2014-Nov-22 05:00N 32°41' W 029°48'0 0.2 1021.4 21.4
2014-Nov-22 04:00N 32°41' W 029°47'2 0.6 1021.2 21.4
2014-Nov-22 00:00N 32°43' W 029°45'0 0.0 1021.5 21.4
2014-Nov-21 21:00N 32°43' W 029°45'0 0.3 1020.7 21.4
2014-Nov-21 20:00N 32°43' W 029°45'1 0.6 1020.2 21.4
2014-Nov-21 18:00N 32°44' W 029°44'0 0.0 1019.0 21.4
2014-Nov-21 16:00N 32°44' W 029°44'2 1.0 1018.5 21.4
2014-Nov-21 14:00N 32°46' W 029°46'1 0.3 1018.9 21.4
2014-Nov-21 12:00N 32°46' W 029°46'1 1.2 1019.5 21.4
2014-Nov-21 11:00N 32°47' W 029°46'1 0.2 1019.4 21.4
2014-Nov-21 08:00N 32°47' W 029°46'1 0.7 1018.2 21.4
2014-Nov-21 06:00N 32°48' W 029°46'1 1.2 1017.0 21.5
2014-Nov-21 05:00N 32°47' W 029°45'0 0.0 1017.0 21.5
2014-Nov-21 03:00N 32°47' W 029°45'0 0.0 1016.7 21.5
2014-Nov-20 23:00N 32°47' W 029°45'1 0.8 1016.7 21.5
2014-Nov-20 22:00N 32°47' W 029°44'3 1.3 1016.9 21.5
2014-Nov-20 20:00N 32°49' W 029°43'1 0.8 1015.2 21.5
2014-Nov-20 19:00N 32°49' W 029°43'5 4.8 1014.9 21.5
2014-Nov-20 18:00N 32°53' W 029°43'0 0.0 1014.5 21.5
2014-Nov-20 16:00N 32°53' W 029°43'2 1.1 1013.7 21.5
2014-Nov-20 14:00N 32°54' W 029°46'1 0.4 1014.4 21.5
2014-Nov-20 11:00N 32°53' W 029°46'0 0.0 1015.7 21.5
2014-Nov-20 09:00N 32°53' W 029°46'0 0.0 1014.7 21.5
2014-Nov-20 08:00N 32°53' W 029°46'4 2.1 1014.5 21.5
2014-Nov-20 06:00N 32°57' W 029°46'0 0.0 1014.0 21.5
2014-Nov-19 23:00N 32°57' W 029°46'1 0.3 1016.2 21.6
2014-Nov-19 21:00N 32°56' W 029°46'0 0.2 1016.4 21.6
2014-Nov-19 20:00N 32°57' W 029°46'1 1.5 1016.0 21.6
2014-Nov-19 19:00N 32°56' W 029°44'1 0.5 1015.7 21.6
2014-Nov-19 18:00N 32°56' W 029°44'2 0.9 1015.7 21.6
2014-Nov-19 16:00N 32°58' W 029°44'4 0.9 1015.4 21.6
2014-Nov-19 12:00N 32°59' W 029°48'0 0.0 1016.0 21.6
2014-Nov-19 11:00N 32°59' W 029°48'0 0.0 1015.9 21.6
2014-Nov-19 09:00N 32°59' W 029°48'0 0.1 1017.5 21.6
2014-Nov-19 07:00N 32°60' W 029°48'1 1.2 1018.0 21.6
2014-Nov-19 06:00N 32°59' W 029°47'5 2.4 1018.2 21.6
2014-Nov-19 04:00N 33°04' W 029°46'0 0.0 1019.0 21.6
2014-Nov-18 23:00N 33°04' W 029°46'0 0.3 1020.0 21.7
2014-Nov-18 22:00N 33°04' W 029°46'1 0.2 1019.9 21.7
2014-Nov-18 18:00N 33°04' W 029°47'1 1.0 1019.2 21.7
2014-Nov-18 17:00N 33°05' W 029°48'0 0.3 1019.0 21.7
2014-Nov-18 16:00N 33°05' W 029°47'1 1.3 1019.2 21.8
2014-Nov-18 15:00N 33°07' W 029°48'1 1.3 1019.4 21.8
2014-Nov-18 14:00N 33°05' W 029°47'2 0.9 1020.2 21.8
2014-Nov-18 12:00N 33°07' W 029°48'3 2.6 1021.0 21.8
2014-Nov-18 11:00N 33°08' W 029°51'0 0.1 1020.9 21.8
2014-Nov-18 07:00N 33°08' W 029°51'0 0.2 1019.2 21.8
2014-Nov-18 05:00N 33°08' W 029°51'2 0.4 1019.4 21.8
2014-Nov-17 23:00N 33°10' W 029°49'2 1.8 1020.0 21.9
2014-Nov-17 22:00N 33°11' W 029°49'1 0.2 1019.2 21.9
2014-Nov-17 18:00N 33°12' W 029°49'1 0.8 1015.7 22.0
2014-Nov-17 17:00N 33°13' W 029°49'0 0.0 1015.5 22.0
2014-Nov-17 16:00N 33°13' W 029°49'0 0.0 1015.0 22.0
2014-Nov-17 15:00N 33°13' W 029°49'0 0.3 1014.5 22.0
2014-Nov-17 14:00N 33°13' W 029°48'1 0.6 1014.5 22.0
2014-Nov-17 12:00N 33°14' W 029°47'1 0.3 1015.0 22.0
2014-Nov-17 10:00N 33°14' W 029°47'0 0.0 1014.5 22.0
2014-Nov-17 07:00N 33°14' W 029°47'1 0.6 1013.2 22.0
2014-Nov-17 06:00N 33°15' W 029°47'0 0.0 1013.2 22.0
2014-Nov-17 05:00N 33°15' W 029°47'0 0.4 1013.5 22.0
2014-Nov-17 04:00N 33°15' W 029°47'0 0.4 1014.0 22.0
2014-Nov-17 03:00N 33°15' W 029°47'2 0.5 1014.2 22.0
2014-Nov-16 23:00N 33°14' W 029°46'1 0.6 1016.2 22.0
2014-Nov-16 22:00N 33°14' W 029°45'1 0.3 1016.0 22.0
2014-Nov-16 20:00N 33°14' W 029°46'0 0.0 1016.0 22.1
2014-Nov-16 18:00N 33°14' W 029°46'1 0.5 1015.7 22.1
2014-Nov-16 17:00N 33°14' W 029°45'0 0.0 1015.7 22.1
2014-Nov-16 16:00N 33°14' W 029°45'1 0.2 1016.0 22.1
2014-Nov-16 13:00N 33°13' W 029°45'0 0.1 1017.7 22.0
2014-Nov-16 12:00N 33°13' W 029°44'1 0.5 1018.2 22.0
2014-Nov-16 11:00N 33°13' W 029°45'0 0.2 1018.4 22.0
2014-Nov-16 10:00N 33°13' W 029°45'0 0.1 1018.0 21.9
2014-Nov-16 07:00N 33°13' W 029°45'   1017.2 21.9
Track history (hours):
 
Tides and Currents Weather Stations Pressure Air Temp Water Temp Dewpoint Dewpoint Depression Visibility Wind Speed Wind Dir Waves Ship Positions

Drifting buoy 13569

Last reported at 2014-Nov-26 07:00 UTC. Time now 2014-Nov-26 08:53 UTC.
Position N 32°14' W 029°35'.

Barometer 1029.0 mb
Water temperature 21.3 ° C

Date/timePositionNaut miles runAvg speedWind from/ knotsBaromVisibWave heightAir tempDewpointWater temp
2014-Nov-26 07:00N 32°14' W 029°35'1 0.6 1029.0 21.3
2014-Nov-26 05:00N 32°15' W 029°36'1 0.7 1029.0 21.3
2014-Nov-26 03:00N 32°17' W 029°37'0 0.0 1029.0 21.3
2014-Nov-25 22:00N 32°17' W 029°37'1 0.4 1028.8 21.3
2014-Nov-25 19:00N 32°18' W 029°37'0 0.0 1027.5 21.4
2014-Nov-25 18:00N 32°18' W 029°37'0 0.3 1027.3 21.4
2014-Nov-25 17:00N 32°18' W 029°38'2 1.0 1027.0 21.5
2014-Nov-25 15:00N 32°20' W 029°37'0 0.1 1026.8 21.5
2014-Nov-25 12:00N 32°20' W 029°37'2 1.9 1028.4 21.4
2014-Nov-25 11:00N 32°22' W 029°37'0 0.4 1028.3 21.4
2014-Nov-25 10:00N 32°21' W 029°37'0 0.2 1027.8 21.4
2014-Nov-25 08:00N 32°22' W 029°37'1 0.6 1026.5 21.3
2014-Nov-25 07:00N 32°22' W 029°37'3 1.0 1025.9 21.4
2014-Nov-25 04:00N 32°25' W 029°40'2 1.6 1025.9 21.4
2014-Nov-25 03:00N 32°23' W 029°38'2 0.5 1025.8 21.4
2014-Nov-25 00:00N 32°25' W 029°40'1 0.5 1026.6 21.4
2014-Nov-24 23:00N 32°25' W 029°40'0 0.0 1026.9 21.4
2014-Nov-24 22:00N 32°25' W 029°40'1 0.4 1027.0 21.5
2014-Nov-24 20:00N 32°25' W 029°41'0 0.0 1026.5 21.5
2014-Nov-24 19:00N 32°25' W 029°41'0 0.0 1026.0 21.5
2014-Nov-24 18:00N 32°25' W 029°41'2 0.6 1026.0 21.5
2014-Nov-24 15:00N 32°27' W 029°41'0 0.0 1025.9 21.5
2014-Nov-24 12:00N 32°27' W 029°41'0 0.0 1027.1 21.5
2014-Nov-24 11:00N 32°27' W 029°41'2 1.9 1027.5 21.5
2014-Nov-24 10:00N 32°29' W 029°41'0 0.0 1027.0 21.5
2014-Nov-24 08:00N 32°29' W 029°41'0 0.0 1025.8 21.4
2014-Nov-24 07:00N 32°29' W 029°41'2 1.6 1025.5 21.4
2014-Nov-24 06:00N 32°30' W 029°43'0 0.0 1025.1 21.4
2014-Nov-24 04:00N 32°30' W 029°43'0 0.0 1025.0 21.4
2014-Nov-24 03:00N 32°30' W 029°43'2 0.4 1025.1 21.4
2014-Nov-23 23:00N 32°31' W 029°44'1 0.6 1025.0 21.4
2014-Nov-23 22:00N 32°31' W 029°44'1 1.0 1025.1 21.5
2014-Nov-23 21:00N 32°31' W 029°43'1 0.3 1025.1 21.4
2014-Nov-23 19:00N 32°31' W 029°44'0 0.0 1024.8 21.5
2014-Nov-23 18:00N 32°31' W 029°44'0 0.0 1024.6 21.5
2014-Nov-23 17:00N 32°31' W 029°44'1 0.4 1024.5 21.5
2014-Nov-23 15:00N 32°32' W 029°43'2 0.8 1024.5 21.5
2014-Nov-23 12:00N 32°34' W 029°44'1 1.2 1025.9 21.4
2014-Nov-23 11:00N 32°35' W 029°45'1 0.6 1025.3 21.4
2014-Nov-23 10:00N 32°34' W 029°45'1 0.7 1025.3 21.4
2014-Nov-23 08:00N 32°35' W 029°46'1 0.5 1024.6 21.4
2014-Nov-23 07:00N 32°35' W 029°45'1 0.5 1024.4 21.4
2014-Nov-23 06:00N 32°35' W 029°46'1 0.8 1024.1 21.4
2014-Nov-23 05:00N 32°36' W 029°46'0 0.0 1024.0 21.4
2014-Nov-23 04:00N 32°36' W 029°46'2 0.3 1024.0 21.4
2014-Nov-22 23:00N 32°37' W 029°47'1 1.0 1024.4 21.4
2014-Nov-22 22:00N 32°37' W 029°46'0 0.0 1024.3 21.4
2014-Nov-22 21:00N 32°37' W 029°46'0 0.0 1024.3 21.4
2014-Nov-22 17:00N 32°37' W 029°46'2 1.6 1023.0 21.4
2014-Nov-22 16:00N 32°38' W 029°44'0 0.0 1022.9 21.4
2014-Nov-22 15:00N 32°38' W 029°44'4 0.8 1023.0 21.4
2014-Nov-22 10:00N 32°41' W 029°47'0 0.2 1023.2 21.4
2014-Nov-22 09:00N 32°42' W 029°47'0 0.2 1022.7 21.3
2014-Nov-22 08:00N 32°41' W 029°47'0 0.0 1022.0 21.4
2014-Nov-22 06:00N 32°41' W 029°47'1 0.7 1021.2 21.4
2014-Nov-22 05:00N 32°41' W 029°48'0 0.2 1021.4 21.4
2014-Nov-22 04:00N 32°41' W 029°47'2 0.6 1021.2 21.4
2014-Nov-22 00:00N 32°43' W 029°45'0 0.0 1021.5 21.4
2014-Nov-21 21:00N 32°43' W 029°45'0 0.3 1020.7 21.4
2014-Nov-21 20:00N 32°43' W 029°45'1 0.6 1020.2 21.4
2014-Nov-21 18:00N 32°44' W 029°44'0 0.0 1019.0 21.4
2014-Nov-21 16:00N 32°44' W 029°44'2 1.0 1018.5 21.4
2014-Nov-21 14:00N 32°46' W 029°46'1 0.3 1018.9 21.4
2014-Nov-21 12:00N 32°46' W 029°46'1 1.2 1019.5 21.4
2014-Nov-21 11:00N 32°47' W 029°46'1 0.2 1019.4 21.4
2014-Nov-21 08:00N 32°47' W 029°46'1 0.7 1018.2 21.4
2014-Nov-21 06:00N 32°48' W 029°46'1 1.2 1017.0 21.5
2014-Nov-21 05:00N 32°47' W 029°45'0 0.0 1017.0 21.5
2014-Nov-21 03:00N 32°47' W 029°45'0 0.0 1016.7 21.5
2014-Nov-20 23:00N 32°47' W 029°45'1 0.8 1016.7 21.5
2014-Nov-20 22:00N 32°47' W 029°44'3 1.3 1016.9 21.5
2014-Nov-20 20:00N 32°49' W 029°43'1 0.8 1015.2 21.5
2014-Nov-20 19:00N 32°49' W 029°43'5 4.8 1014.9 21.5
2014-Nov-20 18:00N 32°53' W 029°43'0 0.0 1014.5 21.5
2014-Nov-20 16:00N 32°53' W 029°43'2 1.1 1013.7 21.5
2014-Nov-20 14:00N 32°54' W 029°46'1 0.4 1014.4 21.5
2014-Nov-20 11:00N 32°53' W 029°46'0 0.0 1015.7 21.5
2014-Nov-20 09:00N 32°53' W 029°46'0 0.0 1014.7 21.5
2014-Nov-20 08:00N 32°53' W 029°46'4 2.1 1014.5 21.5
2014-Nov-20 06:00N 32°57' W 029°46'0 0.0 1014.0 21.5
2014-Nov-19 23:00N 32°57' W 029°46'1 0.3 1016.2 21.6
2014-Nov-19 21:00N 32°56' W 029°46'0 0.2 1016.4 21.6
2014-Nov-19 20:00N 32°57' W 029°46'1 1.5 1016.0 21.6
2014-Nov-19 19:00N 32°56' W 029°44'1 0.5 1015.7 21.6
2014-Nov-19 18:00N 32°56' W 029°44'2 0.9 1015.7 21.6
2014-Nov-19 16:00N 32°58' W 029°44'4 0.9 1015.4 21.6
2014-Nov-19 12:00N 32°59' W 029°48'0 0.0 1016.0 21.6
2014-Nov-19 11:00N 32°59' W 029°48'0 0.0 1015.9 21.6
2014-Nov-19 09:00N 32°59' W 029°48'0 0.1 1017.5 21.6
2014-Nov-19 07:00N 32°60' W 029°48'1 1.2 1018.0 21.6
2014-Nov-19 06:00N 32°59' W 029°47'5 2.4 1018.2 21.6
2014-Nov-19 04:00N 33°04' W 029°46'0 0.0 1019.0 21.6
2014-Nov-18 23:00N 33°04' W 029°46'0 0.3 1020.0 21.7
2014-Nov-18 22:00N 33°04' W 029°46'1 0.2 1019.9 21.7
2014-Nov-18 18:00N 33°04' W 029°47'1 1.0 1019.2 21.7
2014-Nov-18 17:00N 33°05' W 029°48'0 0.3 1019.0 21.7
2014-Nov-18 16:00N 33°05' W 029°47'1 1.3 1019.2 21.8
2014-Nov-18 15:00N 33°07' W 029°48'1 1.3 1019.4 21.8
2014-Nov-18 14:00N 33°05' W 029°47'2 0.9 1020.2 21.8
2014-Nov-18 12:00N 33°07' W 029°48'3 2.6 1021.0 21.8
2014-Nov-18 11:00N 33°08' W 029°51'0 0.1 1020.9 21.8
2014-Nov-18 07:00N 33°08' W 029°51'0 0.2 1019.2 21.8
2014-Nov-18 05:00N 33°08' W 029°51'2 0.4 1019.4 21.8
2014-Nov-17 23:00N 33°10' W 029°49'2 1.8 1020.0 21.9
2014-Nov-17 22:00N 33°11' W 029°49'1 0.2 1019.2 21.9
2014-Nov-17 18:00N 33°12' W 029°49'1 0.8 1015.7 22.0
2014-Nov-17 17:00N 33°13' W 029°49'0 0.0 1015.5 22.0
2014-Nov-17 16:00N 33°13' W 029°49'0 0.0 1015.0 22.0
2014-Nov-17 15:00N 33°13' W 029°49'0 0.3 1014.5 22.0
2014-Nov-17 14:00N 33°13' W 029°48'1 0.6 1014.5 22.0
2014-Nov-17 12:00N 33°14' W 029°47'1 0.3 1015.0 22.0
2014-Nov-17 10:00N 33°14' W 029°47'0 0.0 1014.5 22.0
2014-Nov-17 07:00N 33°14' W 029°47'1 0.6 1013.2 22.0
2014-Nov-17 06:00N 33°15' W 029°47'0 0.0 1013.2 22.0
2014-Nov-17 05:00N 33°15' W 029°47'0 0.4 1013.5 22.0
2014-Nov-17 04:00N 33°15' W 029°47'0 0.4 1014.0 22.0
2014-Nov-17 03:00N 33°15' W 029°47'2 0.5 1014.2 22.0
2014-Nov-16 23:00N 33°14' W 029°46'1 0.6 1016.2 22.0
2014-Nov-16 22:00N 33°14' W 029°45'1 0.3 1016.0 22.0
2014-Nov-16 20:00N 33°14' W 029°46'0 0.0 1016.0 22.1
2014-Nov-16 18:00N 33°14' W 029°46'1 0.5 1015.7 22.1
2014-Nov-16 17:00N 33°14' W 029°45'0 0.0 1015.7 22.1
2014-Nov-16 16:00N 33°14' W 029°45'1 0.2 1016.0 22.1
2014-Nov-16 13:00N 33°13' W 029°45'0 0.1 1017.7 22.0
2014-Nov-16 12:00N 33°13' W 029°44'1 0.5 1018.2 22.0
2014-Nov-16 11:00N 33°13' W 029°45'0 0.2 1018.4 22.0
2014-Nov-16 10:00N 33°13' W 029°45'0 0.1 1018.0 21.9
2014-Nov-16 07:00N 33°13' W 029°45'   1017.2 21.9

Dump ship's entire track history